Location: Famechon
(49.7599°N, 2.0615°E)
Time: 07:08:04
(UTC+00:00)

CSL-04 Rocket - Pass Details

Date: 03 February 2023
Orbit: 806 x 859 km, 98.8° (Epoch: 24 March)

Event Time Altitude Azimuth Distance (km) Brightness Sun altitude
Exits shadow 18:47:09 35° 98° (E) 1,312 4.2 -19.1°
Maximum altitude 18:48:27 41° 65° (ENE) 1,191 4.0 -19.3°
Drops below altitude 10° 18:53:29 10° 357° (N) 2,451 6.1 -20.1°
Sets 18:55:58 0° 350° (N) 3,398 7.0 -20.6°
